作者Okajima (set up man for RedSox)
看板RedSox
标题[转播] 4/22 It's time to sweep aside Yankees!!!
时间Mon Apr 23 06:14:22 2007
Red Sox will sweep aside Yankees later and put them under .500%
http://sports.espn.go.com/mlb/preview?gameId=270422102
See how's the Espn preview.....64% for RedSox to win!
Chase Wright? Who?
http://yankees.scout.com/2/481530.html
Maybe he should go back to Trenton Thunder to eat his nipple!!!
and~~~
I want to take a break, PinkKonan.
I don't want to be another Proctor...
--
※ 发信站: 批踢踢实业坊(ptt.cc)
◆ From: 140.116.102.54
※ 编辑: Okajima 来自: 140.116.102.54 (04/23 06:17)
1F:推 Tavarez51: YeeeeeHaaaa~ Let's sweep them Yankees~ 04/23 06:31
2F:推 nickdarren:SWEEP NY GO SOX 04/23 07:12
3F:推 maxdi:打爆洋基吧 04/23 07:48
4F:推 dragon2000:Go~ Red Sox 04/23 07:58
5F:推 philidov:想问一下,sopcast在哪一台拨? channel-21吗?? 04/23 07:58
6F:推 royalray:HAHAHA!WHITE DAY DREAM! 04/23 07:58
7F:推 Ortiz34:go go Redsox !!!!!!! 04/23 07:59
8F:推 dragon2000:someone is lost "Again" 04/23 08:00
9F:推 dadaHOPE:Coco不会上 04/23 08:04
10F:推 zetaikyosoku:22904 04/23 08:04
11F:→ zetaikyosoku:主播讲日文...orz 04/23 08:05
12F:推 Ortiz34:我在22621看的耶 04/23 08:06
13F:→ zetaikyosoku:22904是英转播,ESPN应该也有转吧,找一下应该会到了 04/23 08:06
14F:推 HANNIBER:请问什麽是22904和22621阿?! 04/23 08:07
15F:推 Ortiz34:sopcast的频道编号 04/23 08:09
16F:推 force2:sop://broker.sopcast.com:3912/22621 04/23 08:09
17F:推 ruffryders:Let's go Red Sox !!! 04/23 08:10
18F:推 Ortiz34:START !!! 04/23 08:11
19F:推 force2:95麦出现 04/23 08:12
20F:→ force2:1OUT 04/23 08:13
21F:推 Ortiz34:有快到, 95 miles 04/23 08:14
22F:推 paulrichman:会不会太刺激了点..一开始就是18vs18对决 04/23 08:14
23F:→ force2:积偷FLY OUT 04/23 08:14
24F:→ Ortiz34:对Abreu我怎麽看到96 miles... 04/23 08:14
25F:推 Pika123:有阿 有96.. 04/23 08:15
26F:→ force2:外角直球真准 04/23 08:15
27F:→ force2:真的96耶 04/23 08:16
28F:推 conanhide:96又一颗 04/23 08:16
29F:推 maxdi:8种球种... 04/23 08:16
30F:推 tsai18:这把枪好像满快乐的 04/23 08:16
31F:推 jshuang:Abreu 保送那球几麦? NHK 151 04/23 08:16
32F:推 paulrichman:囧...BB 04/23 08:16
33F:推 tkyoung:挖咧.Cy Tavarez教的 XD 04/23 08:16
34F:推 Ortiz34:那把三振留给A-Rod好了.... 04/23 08:17
35F:→ paulrichman:砸得好 04/23 08:17
36F:→ conanhide:96mile 04/23 08:17
37F:→ force2:要和A-ROD对决了 04/23 08:17
38F:→ Ortiz34:XDDD砸到人了XDD 04/23 08:17
39F:→ force2:哈哈哈 04/23 08:17
40F:→ conanhide:有脱帽 04/23 08:18
41F:推 Jimmy74:干两分 04/23 08:18
42F:→ tkyoung:这球刚出去的时候看起来不怎麽样阿...立刻掉两分 04/23 08:17
43F:推 jshuang:这球没失投说. 04/23 08:18
44F:→ tkyoung:大坏球还是被巴出去.见鬼 04/23 08:18
45F:→ Jimmy74:GAP POWER= = 04/23 08:18
46F:推 Ortiz34:Orz 等等不帮他打回来就说不过去了 04/23 08:19
47F:→ Ortiz34:Manny追球非常不积极= === + 04/23 08:19
48F:推 force2:COCO应该接的到吧 04/23 08:19
49F:推 Tavarez51: hey, we were talking about american girls~ ^0^ 04/23 08:20
50F:推 paulrichman:manny 说等等送他两只solo HR 04/23 08:20
51F:→ force2:PANE不积极 04/23 08:20
52F:推 Jimmy74:COCO只剩下腿 04/23 08:20
53F:推 dragon2000:加油 不能在看了 希望回来是赢的 04/23 08:20
54F:→ Ortiz34:这时候就很想念Coco的那双快腿.... 04/23 08:20
55F:→ Tavarez51: maybe he misunderstood A-Rod as a lady... 04/23 08:20
56F:推 ruffryders:强烈怀疑 刚刚那球是故意往A-Rod扔的 04/23 08:21
57F:推 club8:球感觉飞蛮久的 外野手追球不积极... 04/23 08:21
58F:推 Jimmy74:Manny有积极过吗XD 04/23 08:22
59F:推 club8:BB了 帮维尼得点分吧..... 04/23 08:24
60F:推 hugoweng:家里电视突然没讯号 囧rz...有没有那麽虽~~ 04/23 08:24
61F:推 force2:让他爆!让他爆! 04/23 08:25
62F:推 Ortiz34:Youk上垒,等等我就爆了他!!!! 04/23 08:25
63F:→ force2:靠你了!Papi 04/23 08:26
64F:推 club8:这投手节奏好慢....爆了他啦..... 04/23 08:26
65F:推 paulrichman:一整个俗小...一直牵制 04/23 08:27
66F:推 Supasizeit:怕盗垒咩 被盗啦 04/23 08:28
67F:→ paulrichman:great job...盗上二垒 04/23 08:28
68F:推 force2:Lugo道上2垒 04/23 08:28
69F:推 Ortiz34:Lugo GOOD JOB ! 04/23 08:28
70F:→ force2:芒刺在背了吼! 04/23 08:29
71F:→ Ortiz34:Youk缠垮他吧 04/23 08:29
72F:推 Belladonaa:Papi喷吧 04/23 08:29
73F:推 Polar:Youk BB 04/23 08:30
74F:推 paulrichman:BB....oh yeah...BIG PAPI show time!!! 04/23 08:30
75F:→ Ortiz34:漂亮,Youk BB 04/23 08:30
76F:→ Ortiz34:0 out, 1,2B 04/23 08:30
77F:推 tonyahsiang:tvants要看哪一台阿?? 04/23 08:30
78F:→ force2:SHOW TIME! 04/23 08:30
79F:推 club8:楼上来一发吧........ 04/23 08:31
80F:→ Ortiz34:等等跑一圈再回来,先去打击罗XD 04/23 08:31
81F:→ paulrichman:再BB下去要看manny 满贯了 04/23 08:31
82F:推 tkyoung:打高了.真可惜 04/23 08:32
83F:→ Ortiz34:还是要让Manny来一支GS ?? 04/23 08:32
84F:→ force2:收集成满垒可以换Manny满贯炮喔 04/23 08:32
85F:→ force2:打差了 04/23 08:33
86F:推 Polar:F9 again = = 04/23 08:34
87F:推 paulrichman:松: 帮我得一分有这麽难吗? (泣) 04/23 08:34
88F:→ mannypo:有点浅的飞球... 04/23 08:34
89F:推 Ortiz34:加油阿!!! 04/23 08:35
90F:→ mannypo:囧阿...JD加油 04/23 08:36
91F:推 Supasizeit:K 04/23 08:37
92F:推 club8:这样居然没得分....维尼..... 04/23 08:37
93F:推 RayAllen1030:囧 04/23 08:37
94F:推 Polar:K 囧 04/23 08:37
95F:推 kkman0331:无人出局一二垒一分未得 松?那麽顾人怨吗 04/23 08:37
96F:推 nozomi21wt:潜水浮出 有没有线上的可以看啊在学校没sopcast Q口Q 04/23 08:37
97F:推 beckli:(哔~消音)为什麽这麽多失投球没炸开? 04/23 08:37
98F:推 Ortiz34:Damn...... 04/23 08:38
99F:→ ljuber:松版真的有负运 @@ 04/23 08:38
100F:→ kkman0331:松?被打一安就掉两分 而且技安比的落点就那麽好 04/23 08:39
101F:→ kkman0331:昨天天使队的colon被打的每球几乎都紮实却也只掉一分 04/23 08:39
102F:推 jshuang:那是守外野的人太 ...... XD 04/23 08:40
103F:推 hugoweng:这就是棒球啊 囧 04/23 08:41
104F:推 Supasizeit:照到一个大胡子老外穿松阪球衣 04/23 08:41
105F:→ watertip:to noz.. 洋基版有个民视的连结 04/23 08:41
106F:推 Ortiz34:Wily这球不错.... 04/23 08:42
107F:推 Belladonaa:卖肉 水 04/23 08:42
108F:推 force2:看他守外野真抖 04/23 08:42
109F:推 globetk3:看来用球数很少 可以多看维尼多投几局 04/23 08:42
110F:推 nozomi21wt:谢谢w大~~~ 04/23 08:43
111F:推 paulrichman:这局防守上比较像话了...manny不要再搞笑,快醒醒! 04/23 08:43
112F:推 paulrichman:打得真闷 = = 04/23 08:48
113F:推 Ortiz34:come on.....i just want hits.... 04/23 08:48
114F:推 club8:大家不要对松阪这麽差啊....~"~ 快打爆对手..... 04/23 08:47
115F:推 paulrichman:喵的..难得Pena不盲炮 04/23 08:50
116F:推 Pika123:松坂对别队投手有鼓舞作用 对自己打者有放松作用吗@@ 04/23 08:50
117F:推 Ortiz34:Pena BB 04/23 08:51
118F:→ Ortiz34:2 outs , 1B 04/23 08:51
119F:推 Polar:Pedroia double! 04/23 08:51
120F:推 TimChiu:Pedroia!~! 04/23 08:51
121F:→ paulrichman:帅啦....小pedro敲出去了 04/23 08:51
122F:→ Ortiz34:2 outs, 2,3B Lugo Next !!!! 04/23 08:52
123F:→ paulrichman:主播刚唱衰完小pedro...马上就敲一只..赞 04/23 08:52
124F:推 TimChiu:........lugo 04/23 08:52
125F:推 tkyoung:没有run support的Dice-K持续中... 04/23 08:52
126F:→ paulrichman:FxxK!!!! 04/23 08:53
127F:推 club8:喵的 又没得分.....维尼(泣) 04/23 08:52
128F:→ Polar:lugo..... 04/23 08:53
129F:推 Tavarez51: More LOBs~ awesome..... 04/23 08:52
130F:→ Ortiz34:..... 04/23 08:53
131F:推 ruffryders:!!!!!!!!!!!!!!!!!!!!!!!!!!!!!!!!!!!!!!!!!!!!!!!!!!! 04/23 08:54
132F:推 christie972:待会要怎麽考试... 04/23 08:54
133F:推 mrkey:怎麽说呢....版标想改为 "左投贫打症" 04/23 08:56
134F:推 TimChiu:Matsuzaka is officially a member of red sox 04/23 08:56
135F:推 Polar:Jeter HBP...... 04/23 08:57
136F:推 TimChiu:砸arod砸jeter 04/23 08:57
137F:推 mrkey:据说今年那个变态男 冬天有去练一个叫vision contact的练习 04/23 08:56
138F:推 paulrichman:= =...again..hit the hitter 04/23 08:57
139F:推 mrkey:可以让自己看球看的更清楚.... 04/23 08:57
140F:推 Polar:K了!! 04/23 08:59
141F:推 paulrichman:K 04/23 09:00
142F:推 HANNIBER:来个DP吧!!! DP GOD!!! 04/23 09:00
143F:推 myass:面对洋基的中心打线真的是考验阿 04/23 09:00
144F:推 ltk99:K! 04/23 09:01
145F:推 Supasizeit:拜一下 04/23 09:01
146F:推 Polar:A-Rod K!!!!! 04/23 09:02
147F:推 paulrichman:KK 04/23 09:02
148F:推 HANNIBER:KK!!! 04/23 09:02
149F:推 TimChiu:Joe morgan真他妈的是个嘴泡男 04/23 09:02
150F:推 myass:还有一个 QQ 04/23 09:02
151F:推 Ortiz34:KKKKKKKKKK !!!!! Dice-K! 04/23 09:02
152F:推 TimChiu:一下说dice-k may not know how to pitch inside 04/23 09:02
153F:→ paulrichman:越投越威了 04/23 09:03
154F:推 TimChiu:K掉arod又说 dicek很强 就算前面hbp 还是go inside 04/23 09:03
155F:推 TimChiu:joe morgan脸皮厚到爆 04/23 09:03
156F:推 TimChiu:97M 04/23 09:04
157F:推 mrkey:Joe morgan和Jon Miller两个基本上也是脑袋有问题的... 04/23 09:04
158F:推 jshuang:97 = 152 灌太凶了吧 04/23 09:04
159F:推 mrkey:97 = 156.2吧... 04/23 09:05
160F:推 beckli:(OOXJJIJI#!@#$!$U)这啥洨阿!!! 04/23 09:05
161F:推 paulrichman:我们的防守...= =..哀 04/23 09:05
162F:推 kkman0331:今天要毁在技安比吗 04/23 09:06
163F:推 Pika123:松坂今年真的有衰运..@@ 04/23 09:07
164F:推 blueflier:发生啥事??.....只能看GamedayQQ 04/23 09:07
165F:推 tkyoung:高到头顶的球都能三振 XD 赚到 04/23 09:07
166F:推 paulrichman:fxxking KKK!! 04/23 09:08
167F:推 TimChiu:有matsuzaka衰小的八卦嘛? 04/23 09:08
168F:推 beckli:第一局那支安打就算了,这啥洨鸟飞阿阿啊阿阿啊阿阿啊! 04/23 09:08
169F:推 myass:orz 这k早一个人来多好 04/23 09:08
170F:推 ckhou:那球抢太凶,Drew来接一定来得及 04/23 09:08
171F:推 deyugo:哀 松阪真的有负运 那球不是两出局也不会得分吧=.= 04/23 09:09
172F:推 tkyoung:还早阿.才三局下.别紧张 04/23 09:10
173F:推 ruffryders:Bobby....... I HATE you !!!!! 04/23 09:12
174F:→ ruffryders:Melky...... I HATE you !!!!!!! 04/23 09:13
175F:推 mark30204:以红袜的近况要逆转很有机会 04/23 09:13
176F:推 suancheng:HR 04/23 09:14
177F:推 Belladonaa:HR! 04/23 09:14
178F:推 tkyoung:Gone! Manny's over everything! 04/23 09:13
179F:推 BloodyJoker:水啦!!!!HR!!! 04/23 09:14
180F:→ suancheng:晚了一打席 不过爽 04/23 09:14
181F:推 Polar:Manny!!!!!!!!!!!!!!!!!!!!!!!! 04/23 09:14
182F:推 kkman0331:洋基得到的三分剧情很像 两出局一二垒 触身球..见鬼了 04/23 09:14
183F:推 TimChiu:快点打爆Double-A Wright吧.. 04/23 09:14
184F:推 Ortiz34:HR !!!! Manny!!! 04/23 09:14
185F:→ ruffryders:MANNY !!!!!!!!!!!!!!!!!!!!!!!!!!!!!!!!!!!!!!!!!!!!! 04/23 09:15
186F:推 windphilip:Manny 今年两支全垒打打出去後都用走的:P 04/23 09:14
187F:推 TimChiu:GONE 04/23 09:15
188F:推 hjh:Manny睡醒了吗?XDDDD轰出去了 04/23 09:15
189F:推 TimChiu:BACK TO BACK!! 04/23 09:15
190F:推 Poleaxe:春训真的结束了 04/23 09:15
191F:→ tkyoung:B2B!!!!! 04/23 09:15
192F:→ suancheng:B2B 04/23 09:15
193F:推 Belladonaa:B2B 04/23 09:15
194F:→ BloodyJoker:back2back啦 04/23 09:15
195F:推 amyer:b2b 04/23 09:15
196F:推 lodsongyy:manny!!!!!!!!!!!!!!!!!! 04/23 09:15
197F:→ windphilip:背靠背了!!! 04/23 09:15
198F:推 myass:Manny!! >///< u r the man!! 04/23 09:15
199F:→ tkyoung:就说还早别紧张吧 XDDDDDDD 04/23 09:15
200F:推 jshuang:刚垒上有人都没有.... XD 04/23 09:15
201F:推 Polar:B2B!!!!!!!!! 04/23 09:16
202F:→ suancheng:来个B2B2B吧 !!!! 04/23 09:16
203F:→ Ortiz34:i forget how high the Green Monster is....? 04/23 09:15
204F:推 mid9blues:B2B!!! 04/23 09:16
205F:推 maikxz:靠 睡过头刚起来看就给我看到这!!!!!! 04/23 09:15
206F:推 deyugo:XDDD 刚刚都不来依下 04/23 09:16
207F:→ ruffryders:JD !!!!!!!!!!!!!!!!!!!!!!!!!!!!!!!!!!!!!!!!!!!!!!!! 04/23 09:16
208F:→ Ortiz34:BTB HR!!!!!! 04/23 09:16
209F:推 TimChiu:back to back to back!!! 04/23 09:16
210F:→ Belladonaa:B2B2B 04/23 09:16
211F:推 Tavarez51: Finally, someone make that kid pay for mistakes 04/23 09:16
212F:→ BloodyJoker:b2b2b 04/23 09:16
213F:推 iammai:OMG!!!!!!!!!!!!!!!!!!!!!!!!!!!!!!!!!!!!!!!!!!!!!!!!!!!! 04/23 09:16
214F:→ Belladonaa:案 好爽 04/23 09:16
215F:→ suancheng:我就说B2B2B吧!!!!! 04/23 09:16
216F:→ Ortiz34:What a god damn hit !!!!!!!!! 04/23 09:17
217F:→ tkyoung:B2B2B XDDDDDDDDDDDDDDDDDd爽!!!! 04/23 09:17
218F:推 ltk99:连3轰 04/23 09:17
219F:推 robinkidd:!!!!!!!!!!!!!!!!!!!!! 04/23 09:17
220F:推 chabear:疯了啦~这次三连战啥不可能都出来了~ 04/23 09:17
221F:推 charlietu:靠!连三发~~爽阿! 不过三轰只得3分... 04/23 09:17
222F:→ mid9blues:B2B2B!!!!!!!!!! 04/23 09:17
223F:→ Polar:B2B2B!!!!!!!!!!!!!!!!!!!!!!!!!!!!!!!!! 04/23 09:17
224F:→ lodsongyy:Manny打出去姿势超赞 XD 04/23 09:16
225F:→ deyugo:!!!!!!!!!!!!!!!!!!!!!! 04/23 09:17
226F:→ jshuang:看!! 不打都不打, 一打就三支.. 04/23 09:17
227F:→ maikxz:!!!!!!!!!!!!!!!!!!!!!!!!!!!!!!!!!!!!!!!!!!!!!! 04/23 09:17
228F:推 phoenixtwo:好扯..维尼燃烧吧 04/23 09:17
229F:推 amyer:好爽唷 04/23 09:17
230F:推 WilliamChu:爽阿 04/23 09:17
231F:→ lodsongyy:XDDDDDD 爽呆了 04/23 09:17
232F:→ suancheng:还不快放烟火!!!!!! 04/23 09:17
233F:推 Supasizeit:好样的 04/23 09:17
234F:→ Ortiz34:BTBTB !!!!!!!!!!!! 04/23 09:17
235F:推 maxdi:靠....在喂球喔 04/23 09:17
236F:推 HANNIBER:为什麽~我去看书就拿三分!!!不管我要回来看了!!! 04/23 09:17
237F:→ tkyoung:Dice-K: T.T This is what I came for 04/23 09:17
238F:→ ruffryders:!!!!!!!!!!!!!!!!!!!!!!!!!!!!!!!!!!!!!!!!!!!!!!!!!!! 04/23 09:17
239F:推 ckhou:XDD B@B@B 04/23 09:17
240F:推 meteorapark:轰的好爽喔 XXXXXXXD 04/23 09:17
241F:→ ruffryders:CRAZY !!!!!!!!!!!!!!!!!!!!!!!!!!!!!!!!!!!!!!!!!!!!! 04/23 09:18
242F:→ jshuang:队长: 我要为我的投手报仇! 04/23 09:18
243F:→ HANNIBER:不要赶我走~我想看求...@@" 04/23 09:18
244F:推 TimChiu:lol 04/23 09:18
245F:→ tkyoung:连四! 04/23 09:18
246F:→ maxdi:再一发我裸奔 04/23 09:18
247F:→ jshuang:看! 04/23 09:18
248F:推 TimChiu:4 in a roll!! 04/23 09:18
249F:→ Belladonaa:......................... 04/23 09:18
250F:→ Supasizeit:再来一只!! 04/23 09:18
251F:推 nicetry:XDDDDDDDDD 04/23 09:18
252F:→ BloodyJoker:b2b2b2b 04/23 09:18
253F:→ amyer:连四了 04/23 09:18
254F:推 chenlh:maxdi:再一发我裸奔 04/23 09:18
255F:→ jshuang:maxdi 裸奔吧 04/23 09:18
256F:推 maxspeed150:B2B2B2B 04/23 09:18
257F:→ suancheng:干 怎麽可能!!!!!!! 连四轰 04/23 09:18
258F:→ chabear:靠~打不完了啦~ 04/23 09:18
259F:推 iammai:太爽啦!!!!!!!!!!!!!!!!!!!!!!!!!!!!!!!!!!!!!!!!!!!!!!!!! 04/23 09:18
260F:→ ltk99:爽!!!!!!!!!!!!!!!!!!!!!!!!!! 04/23 09:18
261F:→ robinkidd:又来伊之!!!!!!!!!!!! 04/23 09:18
262F:推 dadaHOPE:OMFG!!!!!!!!!!!!!!!!!!!!!!!!!!!!!!!!!!!!!!!!!!!!!!!!! 04/23 09:18
263F:→ marlonlai:maxdi:再一发我裸奔 04/23 09:18
264F:→ amyer:有人要裸奔了 04/23 09:18
265F:→ ethanluo:四发罗.....队长补一发啦!! 04/23 09:18
266F:→ tkyoung:maxdi I heard you! 04/23 09:18
267F:→ phoenixtwo:裸奔..我有看到 04/23 09:18
268F:推 club8:太扯了~~~~~~~~~~~~~~~~~~~~~~~~~~~~~~~~~~~~~~~ 04/23 09:18
269F:→ suancheng:maxdi:再一发我裸奔 04/23 09:18
270F:→ Polar:B2B2B2B !!!!!!!!!!!!!!!!!!!!!!!!!!!!!!!!!!!!!!!!!! 04/23 09:18
271F:推 enisx:哇~~~~连四发hr 04/23 09:18
272F:推 dicky1:B TO B TO B TO B !!!!!!!!!!!!!!!!1 04/23 09:18
273F:推 rosemars:天啊.....居然有这种事....!!!!! 04/23 09:18
274F:推 mid9blues:B2B2B2B!!!! 04/23 09:18
275F:→ meteorapark:全垒打大放送~~~~~~~~好爽喔~~~ 04/23 09:18
276F:推 Toxicity:天啊~ 我忍不住狂笑~ 太爽了! 04/23 09:18
277F:→ maxspeed150:爽~~~~ 04/23 09:18
278F:推 maikxz:............................!!!!!!!!!!!!!!!!!!!!!!!!!!! 04/23 09:18
279F:→ Ortiz34:going crazy !!!! 04/23 09:18
280F:推 hjh:干爽到靠呗,没睡觉看比赛果然是对的XD 04/23 09:18
281F:→ ckhou:队长也轰...XDDDDDDDDDDDDDDDDD 04/23 09:18
282F:推 sylviehsiang:MAXDI:再一发我裸奔 04/23 09:18
283F:→ Belladonaa:WMP一定会辉大棒... 04/23 09:18
284F:推 alexndy:爽翻了 04/23 09:19
285F:推 deyugo:爽!!!!!!!!!!!!! 回去2a重建信心吧 XDDD 04/23 09:18
286F:推 bigpet:疯了疯了!!!!! 连四发 04/23 09:19
287F:推 pop100:太神啦~第一次看到连四轰 04/23 09:19
288F:→ HANNIBER:有人要裸奔了!!!!!!!!!! 04/23 09:19
289F:推 nozomi21wt:害我在学校图书室乱叫 XD 酷毙了 04/23 09:18
290F:推 paulrichman:妈的我错过了甚麽..拉炮屎回来就得四分 04/23 09:19
291F:→ ruffryders:WHAT!!!!!!!!!!!!!!!!!!!!!!!!!!!!!!!!!!!!!!!!!!!!!!! 04/23 09:19
292F:推 johnny30315:这辈子第一次!!!!!!!!!!!!!!!!!!!!!!!!!!!!!!!!!!!!!! 04/23 09:19
293F:推 Junken:GO CRAZY!!!!!!! 04/23 09:19
294F:推 AmberBrkich:背靠背靠背再靠背!!!!!!!!!!!!!!!! 04/23 09:19
295F:推 TimChiu:maxdi你不要给我嘴泡 04/23 09:19
296F:→ HANNIBER:第一次看到这麽酷的拉!!! 04/23 09:19
297F:推 myass:疯了 XD b2b2b2b!!!!!!!!!!!!! 04/23 09:19
298F:→ ltk99:教练....我想看连五轰 04/23 09:19
299F:推 NOMO:靠 这三洨啦? 04/23 09:19
300F:推 Poleaxe:裸奔 裸奔 XDD 04/23 09:20
301F:推 lodsongyy:!!!!!!!!!!!!!!!!!!!!疯了!!!!!!!!!!!!!!!! 04/23 09:20
302F:推 Jethro1215:太爽了~~~~~ WOOOOO~~~ 04/23 09:20
303F:推 jianpi:我这辈子第一次看到连四支 04/23 09:20
304F:推 JLester:maxdi:再一发我裸奔 04/23 09:20
305F:→ HANNIBER:五发~我晚上不去考试拉!!!! 04/23 09:20
306F:→ leione:我快疯了 一进办公室就连四轰!!!!! 04/23 09:19
307F:推 specialcook:靠邀= ="我才出门一下...没看到 囧 04/23 09:20
308F:推 Belladonaa:被K 04/23 09:20
309F:推 tkyoung:下庄 04/23 09:20
310F:→ HANNIBER:拿大五换第五只 04/23 09:20
311F:推 suancheng:Spicialcook你还是出门吧 XD 04/23 09:20
312F:推 Supasizeit:红袜史上第一次 连四拉四 04/23 09:20
313F:推 christie972:干 爽翻了!!! 04/23 09:20
314F:推 maikxz:按 看他这种选球= = 04/23 09:21
315F:→ leione:晚上何时重播啊 04/23 09:20
316F:推 PaytonBank:!!!!!!!!!!!!!!!!!!!!!!!!!!!!!!!!!!! 04/23 09:21
317F:推 MER:靠 我在上班不能看啦~~~ 吼~~~~~~ 04/23 09:21
318F:推 Carmelo3:SONG!!!!!!!!!!!!!!!!!!11 04/23 09:21
319F:推 KoAnne:shit~~~我没看到 04/23 09:21
320F:推 danceking:松版:这是在打电动吗??科科~~ 04/23 09:21
321F:推 Crazyloveyou:干 我哭了〒△〒 04/23 09:21
322F:推 Mace2004:九台!洋基快付钱! 04/23 09:21
323F:推 paulrichman:Oh My GOD!!! 04/23 09:21
324F:推 mid9blues:maxdi:再一发我裸奔 04/23 09:22
325F:推 AmberBrkich:见证历史,爽~~~~~~~~~~~~~~~~~~~ 04/23 09:21
326F:推 TimChiu:I JUST WITNESSED HISTORY 04/23 09:21
327F:推 WilliamChu:哪个要裸奔的自己举手 04/23 09:22
328F:推 Opeth:这局实在太high了...在实验室看到爽翻了...XDDD 04/23 09:21
329F:推 Tavarez51: MAXIMUS! MAXIMUS! MAXIMUS! MAXIMUS! MAXIMUS! 04/23 09:21
330F:推 RayAllen1030:爽到深处无怨尤阿~XDDDD 04/23 09:22
331F:→ paulrichman:刚看到重播...疯了疯了 04/23 09:22
332F:推 meteorapark:看到热血沸腾阿~~~好热血阿 XXXD 04/23 09:22
333F:推 suancheng:爽到番 !!!!!! 04/23 09:22
334F:推 WayneH:爽啦 04/23 09:22
335F:推 A8804064:买完早餐回来刚好转到Manny...XDDDD 04/23 09:22
336F:→ Cawaiine:太爽了拉 04/23 09:23
337F:推 singsongcc:Back to Back to Back to Back~~~爽拉XD 04/23 09:22
338F:推 randy0125:这是 全垒打大赛吗?~ 哈哈哈~~~ 04/23 09:22
339F:推 barkli:看...去大便没看到 04/23 09:22
340F:推 caesers:只有在MVP玩的出来的情况发生了 爽 04/23 09:22
341F:推 smalldick:OH~MY~GOD~ 04/23 09:22
342F:推 ruffryders:那个要裸奔的~ 别想赖阿!!!!!!!!!!!!!! 04/23 09:23
343F:推 chuchun15:靠邀!!!我爽到全身鸡皮疙瘩都起来了 04/23 09:22
344F:推 uponupon:Back to back to back to back!!!!! 04/23 09:23
345F:推 hugoweng:1有没有那麽爽啊~ 04/23 09:23
346F:→ mannypo:天胡十三么阿...送啦 04/23 09:23
347F:推 ckhou:我参与了历史啊!!! 太棒了~~~~(妈我在这里!!!) 04/23 09:23
348F:→ meteorapark:哪个要裸奔的自己举手 XXXD 04/23 09:23
349F:→ uponupon:这比我打MVP还high阿~~~ 04/23 09:23
350F:推 dadaHOPE:日本乡民看到了没 就是只想打全垒打啦 送XD 04/23 09:23
351F:推 tonometer:maxdi:再一发我裸奔 04/23 09:23
352F:推 PaytonBank:XDDDDDDDDDDDDDDD 04/23 09:24
353F:推 zingaro:爽翻啦!!!!!!!!!!!!!!!!!!!!!!!!!!! 04/23 09:23
354F:推 mark30204:天ㄚ 红袜这是太猛了 04/23 09:24
355F:→ ruffryders:裸奔 裸奔 裸奔 裸奔 裸奔 裸奔 裸奔 裸奔 裸奔 裸奔 04/23 09:24
356F:→ zingaro:maxdi:再一发我裸奔 04/23 09:24
357F:推 toptoptop44:太豪笅了吧~连4发HR!!! 04/23 09:23
358F:推 howdou:干 出去买早餐没看到@@ 04/23 09:24
359F:推 asdfgzxcvb:爽阿!!!受不了啦!!! 04/23 09:24
360F:推 francviking:shit pps一直累格 04/23 09:24
361F:→ ruffryders: maxdi:再一发我裸奔 04/23 09:24
362F:→ zingaro:史上最扯!!!!!!!!!!!!!!!!!!!!!!!!!!!!!!!!!!!!!!!!!!!!!! 04/23 09:24
363F:推 KoAnne:隔壁hey0415的问题让我笑了 ...XD 04/23 09:24
364F:推 WilliamChu:r奔 裸奔 裸奔 裸奔 裸奔 裸奔 裸奔 裸奔 裸奔 裸奔 04/23 09:24
365F:→ uponupon:可恶...9点50期中考...= = 好想继续看阿 04/23 09:24
366F:推 Polar:回应日本乡民的话吗? XDDDDDDDDD 04/23 09:24
367F:→ hugoweng:Theo看呆了XD 04/23 09:24
368F:推 meteorapark:楼上UP大 别去考拉~~不然又错过历史了XDDDD 04/23 09:25
369F:推 Mace2004:大辅哥今天被长打...... 04/23 09:25
370F:推 EndlessJazz:太疯狂啦~~ 04/23 09:26
371F:推 TimChiu:maxdi:再一发我裸奔 04/23 09:26
372F:推 ruffryders: maxdi:再一发我裸奔 04/23 09:27
373F:推 maikxz:比扯铃还扯= = 04/23 09:27
374F:→ ruffryders: maxdi:再一发我裸奔 04/23 09:27
375F:推 lodsongyy:这连4轰 要好好保存XD 04/23 09:26
376F:推 maxdi:靠腰....这个ID不能用了 04/23 09:27
377F:→ ruffryders:我们的防守组很差阿~ 04/23 09:27
378F:推 zingaro: maxdi:再一发我裸奔 04/23 09:27
379F:推 yankeehater: maxdi:再一发我裸奔 04/23 09:27
380F:推 suancheng:maxdi:再一发我裸奔 04/23 09:28
381F:推 paulrichman:妈的..松自己要稳住啊.. 04/23 09:27
382F:→ ruffryders: maxdi:再一发我裸奔 04/23 09:28
383F:推 nicetry: maxdi:再一发我裸奔 04/23 09:28
384F:推 dalireal:maxdi:再一发我裸奔 04/23 09:28
385F:推 KoAnne: maxdi:再一发我裸奔 04/23 09:28
386F:推 ruffryders: maxdi:再一发我裸奔 04/23 09:29
387F:推 WilliamChu: maxdi:再一发我裸奔 04/23 09:30
388F:推 tkyoung:我也来 maxdi:再一发我裸奔 XD 04/23 09:29
389F:推 KoAnne:爽~~~~~~~~~超点失分 04/23 09:30
390F:推 suancheng:NP!!!! 04/23 09:30
391F:→ krajicek:现在剩Papi还没打了 04/23 09:30
392F:推 maxdi:我研究看看哪条路晚上都没人..... 04/23 09:30
393F:→ ruffryders: maxdi:再一发我裸奔 04/23 09:30
394F:推 TimChiu:!!!!!!!!!!!!!!!!!!!!!!!!帕姬魂!!!!!!!!!!!!!!!!!!!!!!!! 04/23 09:30
395F:推 paulrichman:干的好...小pedro 04/23 09:30
396F:推 maikxz:maxdi:靠腰....这个ID不能用了 maxdi想装傻 乡民有看见 04/23 09:30
397F:→ suancheng:裸奔还OK啦~ 隔壁有人要吞电视 04/23 09:31
398F:推 oalab:乡民要见证maxdi裸奔 04/23 09:31
399F:推 myass: maxdi:再一发我裸奔 go! sox!! 04/23 09:31
400F:推 KoAnne:哈哈 实在太爽了~~~没失分 04/23 09:32
401F:推 Polar:Youk 水! 松没失分 04/23 09:32
402F:→ paulrichman:守住了.....OH YA!! 04/23 09:32
403F:→ sycc: maxdi:再一发我裸奔 04/23 09:32
404F:推 deyugo:好险阿 ~"~ 04/23 09:32
405F:→ paulrichman:我也来... maxdi:再一发我裸奔 04/23 09:32
406F:推 zingaro:爽 pedro NP!! 04/23 09:32
407F:推 ckhou: 奔裸我发一再:idxam 04/23 09:32
408F:推 Belladonaa: maxdi:再一发我裸奔 04/23 09:33
409F:推 ruffryders:太好了 守住了!!! maxdi:再一发我裸奔 !!! 04/23 09:33
410F:→ zingaro: maxdi:我研究看看哪条路晚上都没人..... XDDD 04/23 09:34
411F:推 ltk99: maxdi:再一发我裸奔 04/23 09:34
412F:推 jandin: maxdi:再一发我裸奔 04/23 09:34
413F:→ ruffryders: maxdi:我研究看看哪条路晚上都没人..... 04/23 09:34
414F:推 suancheng:4 HR in a roll or road? 刚刚主拨是讲哪一个落 04/23 09:34
415F:推 WilliamChu:maxdi 我让你戴红袜的帽子裸奔啦 04/23 09:35
416F:推 hjh: maxdi:再一发我裸奔 04/23 09:35
417F:推 KoAnne:我以为又要出去了 XD 小perdo 04/23 09:35
418F:推 NOMO: maxdi:再一发我裸奔 04/23 09:36
419F:推 philidov:换投....有点侧投的Colter Bean 04/23 09:36
420F:→ ruffryders:感觉 连四轰的快感 来的快去的也快 04/23 09:36
421F:推 maikxz:按...MLBTV突然没声音 04/23 09:36
422F:推 blueflier:maxdi 我的毛帽可以借你...XD 04/23 09:36
423F:→ ruffryders:Melky ........ I HATE you ......!!!!!!!!!!! 04/23 09:36
424F:推 Polar:我的MLB.TV也是 吓了一跳@@" 04/23 09:36
425F:推 JLester:没声音... 04/23 09:37
426F:→ JLester:有了~ 04/23 09:37
427F:推 meteorapark:maxdi 裸奔要有图有真像阿~~~XD 不然对乡民难交代... 04/23 09:37
428F:推 KoAnne:对方捕手好像有问题~~~ 04/23 09:37
429F:→ maikxz:Lugo别偷点 也来一一只吧 04/23 09:37
430F:推 dadaHOPE:恭喜洋基牛棚又要多投六局 可说是独步全联盟 04/23 09:37
431F:推 krajicek:这局会轮到Papi了,要补一发吗? 04/23 09:39
432F:推 paulrichman:lugo..选球男 04/23 09:40
433F:推 Ortiz34:Lugo walk.... 04/23 09:40
434F:推 maikxz:Youk竟然没死... 04/23 09:40
435F:→ paulrichman:NOT IN TIME!! 04/23 09:40
436F:推 zingaro:Papi来一发吧!!! 04/23 09:40
437F:→ maikxz:脚成也变快了吗XD 04/23 09:41
438F:推 chenlh:实在是不敢说老爹来一发就怎麽怎麽... 04/23 09:41
439F:推 WilliamChu:老爹GOGOGO 04/23 09:41
440F:推 maxdi:[公告] 本版禁止任何形式之违反善良风俗推文 04/23 09:41
441F:推 Ortiz34:XDDD 04/23 09:42
442F:推 meteorapark:差一点阿~~~~~ 04/23 09:42
443F:推 tkyoung:差一点 Papi RBI double! 04/23 09:41
444F:推 Polar:Papi ground rule double! 04/23 09:43
445F:→ WilliamChu:maxdi有给你戴帽子还不满意喔 04/23 09:42
446F:推 paulrichman:shit...差一点 04/23 09:43
447F:→ maxdi:再出去我含着香蕉跑 04/23 09:43
448F:推 specialcook:PAPI差一点@@" 04/23 09:43
449F:推 bigpet:Manny GOGOGOGOGOGOGO!!!! 04/23 09:43
450F:推 maikxz:可恶...ground rule double 04/23 09:43
451F:→ Ortiz34:I'm sorry..... 04/23 09:43
452F:推 chenlh:Manny Manny Manny Manny Manny Manny Manny 04/23 09:43
453F:→ specialcook:maxdi大你确定吗?XD 下一棒是MANNY耶 04/23 09:43
454F:→ WilliamChu:MANNY GOGOGO 04/23 09:44
455F:推 suancheng:想要去上厕所 可是怕错过XD 04/23 09:44
456F:→ Ortiz34:go go Manny !!! 04/23 09:44
457F:推 hjh:干~以为Papi也要来一发>< 04/23 09:44
458F:推 Opeth:有点可惜... 04/23 09:46
459F:推 paulrichman:好正的广告妹 04/23 09:47
460F:推 Tavarez51:More LOBs, but guess' we shoudn't ask that much 04/23 09:46
461F:推 Ortiz34:Drew involves in the BOS and LAD BTBTBTB...... 04/23 09:47
462F:→ paulrichman:Happy B-day...粉柯南? 04/23 09:48
463F:推 Polar:Baseball有人po四连发的记录 Drew参加了两次XD 04/23 09:48
464F:推 tkyoung:挖咧.刚刚好过 04/23 09:49
465F:→ Polar:Jeter homer= = 04/23 09:50
466F:推 maxdi:hr~~不过不关我的事 04/23 09:50
467F:推 maxspeed150:...... 04/23 09:50
468F:推 paulrichman:= = 04/23 09:50
469F:推 Tavarez51: wow, whatever they hit become something......... 04/23 09:50
470F:→ paulrichman:日本乡民不能怪袜子们了... 04/23 09:50
471F:→ tkyoung:K, nice come back 04/23 09:51
472F:推 club8:刚刚是不是有一球97mile.... 04/23 09:51
473F:推 Mace2004:心理素质没话讲,被打HR後,依旧送K 04/23 09:51
474F:→ krajicek:搞不好投得差却胜投,投得好却败投 04/23 09:52
475F:→ Mace2004:再K掉A-Rod吧 04/23 09:52
476F:→ tkyoung:K!!!! 04/23 09:53
477F:推 ltk99:K 04/23 09:53
478F:推 maxdi:K 04/23 09:53
479F:推 Polar:A-Rod K!!!!! 04/23 09:53
480F:→ tkyoung:spliter - slider - curve = K 04/23 09:53
481F:推 paulrichman:A-Rod终於恢复正常水准了 XD 04/23 09:53
482F:推 meteorapark:好变态的卡特阿~~ 04/23 09:53
483F:推 darkstar0412:hr .....@@ 04/23 09:54
484F:推 nca49:97mile?! 04/23 09:55
485F:推 waterice12:要开始KKKKKKKKKKKKK 04/23 09:55
486F:推 specialcook:AROD回来了XD 04/23 09:55
487F:推 paulrichman:he GOT it!!! 04/23 09:56
488F:→ paulrichman:A-rod good JOB...you're BACK..man!! 04/23 09:56
489F:推 club8:今天变身成k-rod了 变得好! 04/23 09:56
490F:→ paulrichman:K-rod is A-rod XDDD 04/23 09:56
491F:→ club8:袜子们下一局多打些分数让维尼拿胜投吧! 04/23 09:56
492F:推 ruffryders:A-rod became K-rod XDDD 04/23 09:57
493F:→ maikxz:控球不稳 趁机击倒吧XD 04/23 09:59
494F:推 mark30204:红袜的打线在爆发吧 04/23 09:59
495F:推 paulrichman:drew walk! 04/23 10:00
496F:推 mannypo:A罗不能太放心吧...之前也是先领K才轰再见满贯炮 04/23 10:01
497F:推 paulrichman:队长再来一发 04/23 10:02
498F:推 PaytonBank:!!!!!!! 04/23 10:02
499F:→ mannypo:打完之後才发现...希望不要乌鸦嘴= = 04/23 10:02
500F:推 maikxz:JD Drew你这玻璃人别乱跑..... 04/23 10:03
501F:推 Polar:Drew SB 04/23 10:03
502F:→ paulrichman:NOT IN TIME!! 04/23 10:03
503F:推 waterice12:SBSB 04/23 10:04
504F:→ Polar:Tek BB 04/23 10:04
505F:推 specialcook:结果队长BB Drew还是小心别伤身的好= =" 04/23 10:04
506F:→ paulrichman:tek walk! 04/23 10:04
507F:→ maikxz:现在隔壁也搞兴农那套吗= = Pettitte怎在牛棚练投.... 04/23 10:04
508F:→ waterice12:洋基牛棚要开始燃烧了吗XD 04/23 10:05
509F:推 juiceana:盲 有够盲 04/23 10:05
510F:推 tkyoung:in-between session吧 04/23 10:05
511F:推 RayAllen1030:pena K.. 04/23 10:05
512F:推 kengriffey:已上推文我只看到有人说要裸奔 快裸奔吧 04/23 10:05
513F:→ maikxz:干 真够盲.... 04/23 10:05
514F:推 Polar:真盲= = 04/23 10:06
515F:推 hugoweng:Wily真的很盲.. 04/23 10:06
516F:推 ckhou:盲炮终究是盲炮 04/23 10:06
517F:推 paulrichman:damn BLIND -.- 04/23 10:06
518F:→ mannypo:袁公刚刚有说ANDY为啥在牛棚...今天是他牛棚日 04/23 10:06
519F:推 specialcook:残垒 囧 04/23 10:07
520F:→ mannypo:他可能'自动'要求上去 04/23 10:06
521F:推 charlietu:唉!今天的残垒真是有够多~~四轰都是阳春 04/23 10:07
522F:→ hugoweng:...这麽不稳的投手...竟然没打爆他 04/23 10:07
523F:推 Pika123:不打HR好像拿不到分....~.~ 04/23 10:07
524F:推 MrDouble:Pena....... 04/23 10:07
525F:推 Tavarez51:.....so...we can only score when no one on? 04/23 10:07
526F:推 juiceana:目前为止得点圈打击率 0/7 04/23 10:08
527F:推 RayAllen1030:维尼撑住阿~ 04/23 10:10
528F:推 zingaro:真的很难拿分@@ 04/23 10:10
529F:推 guapoantonio:松板现在几K啦?? 04/23 10:10
530F:推 paulrichman:好像5K 04/23 10:11
531F:推 tkyoung:又是个鸟安 Orz... 04/23 10:12
532F:推 hugoweng:拜托锁住啊\!!! 04/23 10:12
533F:推 jshuang:这接到 DP 耶 04/23 10:12
534F:→ tkyoung:DP.可惜又落後了 04/23 10:13
535F:推 maikxz:JD Drew 不要勉强他这个玻璃人.... 04/23 10:14
536F:推 hugoweng:打回来啊! 04/23 10:14
537F:推 RayAllen1030:Drew打全垒打就好XD 04/23 10:14
538F:推 Pika123:打到外野都蛮衰小的 真惨>.< 04/23 10:14
539F:推 paulrichman:Andy 要上来? 04/23 10:15
540F:推 amyer:Pettitte 要上了,今年第二次这样用 04/23 10:15
541F:推 ltk99:我论今晚媒体焦点在松坂失五分而不是红袜连四轰的可能性... 04/23 10:15
542F:推 ckhou:先发投手这样操? 04/23 10:17
543F:推 TimChiu:Andy Pettite 04/23 10:17
544F:推 tkyoung:Pettitte还真的上了? 04/23 10:17
545F:推 specialcook:Pettitte真的上来了... 04/23 10:17
546F:推 beckli:所以...把派提特当刚雷吗~ 04/23 10:17
547F:→ tkyoung:这样操.如果伤了的话Torre就爽了 04/23 10:18
548F:→ maikxz:投手教练是老刘吗= = 04/23 10:19
549F:推 waterice12:在来个几发吧 04/23 10:19
550F:推 paulrichman:Youk walk! 04/23 10:21
551F:推 WilliamChu:老爹把他打下去吧 04/23 10:21
552F:推 TimChiu:sign 04/23 10:21
553F:推 specialcook:PAPI DP..囧 04/23 10:21
554F:推 hugoweng:打线好无力 Orz... 04/23 10:21
555F:推 TimChiu:sigh... 04/23 10:21
556F:推 sycc:DP 04/23 10:21
557F:推 maikxz:.................................. 04/23 10:21
558F:推 nozomi21wt:Pettitte真的上来燃烧小宇宙...趁机快轰吧 XD 04/23 10:21
559F:推 tkyoung:挖咧.让他in-between session的配额解决一局? 04/23 10:21
560F:→ paulrichman:= =...DP 04/23 10:22
561F:推 beckli:靠...不满中 04/23 10:22
562F:推 freeru:才打五局 LOB 就来到 9 了........有没有那麽机车啊... 04/23 10:21
563F:推 A8804064:维尼今天颇差...他的差能概过连四轰 04/23 10:25
564F:推 paulrichman:K 04/23 10:26
565F:推 danceking:不要情圣...偶要肛岛XD\囧/ 04/23 10:27
566F:推 jshuang:对 Abreu 一直丢变速. XD 04/23 10:28
567F:推 Crazyloveyou:今天老爹怎麽穿四十二号啊 什麽意思啊 04/23 10:28
568F:推 maikxz:真爱用Romero= = 04/23 10:29
569F:推 TimChiu:Jackie Robinson's number 04/23 10:29
570F:推 JeAnnWu:K 04/23 10:30
571F:推 ltk99:K 04/23 10:30
572F:推 hugoweng:K 04/23 10:30
573F:推 specialcook:K 04/23 10:30
574F:推 RayAllen1030:阿布 3K 04/23 10:30
575F:推 krajicek:这局应该是松阪最後一局了吧 04/23 10:30
576F:→ JeAnnWu:应该结束了 7IP 7H 7SO 1BB 5R 04/23 10:30
577F:推 paulrichman:7K 04/23 10:30
578F:→ adamp3:给维尼胜投吧!!! 这局至少要打两分!!! 04/23 10:30
579F:推 amyer:松坂今天表现的还可以啦,两只鸟安都让他失分也没办法,继续 04/23 10:30
580F:推 maikxz:Manny-Drew-Lowell-Varitek 再来一次应该很屌... 04/23 10:30
581F:→ amyer:加油 04/23 10:31
582F:→ hugoweng:Lucky 7!!!!!打线大爆发啊 04/23 10:31
583F:推 JackyPayton:KKK 04/23 10:32
584F:→ Pika123:可以再投一局吗 ?.? 04/23 10:33
585F:推 JeAnnWu:日本乡民又会说只顾打全垒打吗?XD 04/23 10:34
586F:推 amyer:不可能的,103球了 04/23 10:34
587F:推 zingaro:加油!! 04/23 10:35
588F:→ JeAnnWu:不过最近三次松阪的先发 红袜的五分是五支阳春弹XD 04/23 10:34
589F:推 specialcook:今天被说只顾打全垒打的话 还真的无话可说...XD 04/23 10:35
590F:推 hugoweng:今天第一支SINGLE... 04/23 10:36
591F:→ JeAnnWu:终於不是全垒打了XD 04/23 10:36
592F:→ specialcook:才说完MANNY就安打罗~ 04/23 10:36
593F:推 cvn65:大四喜 十八罗汉 四十番 04/23 10:35
594F:推 maikxz:胖子 只会打全垒打XD 04/23 10:36
595F:推 JeAnnWu:YES! 04/23 10:37
596F:推 freeru: XDDDDDDDDDD 04/23 10:37
597F:→ JeAnnWu:Drew真是棒 04/23 10:37
598F:→ maikxz:DREW!!!!!!!!!!!!!!!!!! 04/23 10:38
599F:推 jshuang:至少要败逃吧. 04/23 10:38
600F:推 WilliamChu:水啦 队长加油 04/23 10:38
601F:推 Pika123:加油 加油 冲喔~~ 04/23 10:38
602F:推 RayAllen1030:Drew真是棒耶 04/23 10:38
603F:推 paulrichman:drew!!! 04/23 10:38
604F:推 Ortiz34:Drew Double !!!!! 04/23 10:38
605F:推 MER:Mr. Double要发功啦 赏支bouble吧 04/23 10:38
606F:→ Ortiz34:let Dice-K win the game !!!!!! 04/23 10:38
607F:推 ckhou:杰迪猪真的超好用的 04/23 10:39
608F:推 MrDouble:Drew好威阿 04/23 10:38
609F:推 waterice12:烧吧牛棚 04/23 10:39
610F:→ maikxz:过去Drew平均一年打约118场...现在打了16场 还有102场= = 04/23 10:38
611F:推 JeAnnWu:HR 04/23 10:39
612F:推 jshuang:HR! 04/23 10:39
613F:→ WilliamChu:都没发现老派下去了耶 04/23 10:39
614F:推 hugoweng:HR!!!!!!!!1 04/23 10:39
615F:推 iammai:HR!!!!!!!!!! 04/23 10:39
616F:推 juiceana:Gone!!!!!!!!!!!!!!!!!!! 04/23 10:39
617F:推 BIGBRA:哈哈.卖肉有够强 04/23 10:39
618F:→ JeAnnWu:爽啦 04/23 10:39
619F:推 Toxicity:HomeRun 04/23 10:39
620F:推 nicetry:哈~~ 04/23 10:39
621F:→ MrDouble:送!!! 04/23 10:39
622F:推 TimChiu:HOMERUN AGAINNNNNNNNN!!!! 04/23 10:39
623F:推 bkm0925:爽!!HR 04/23 10:39
624F:推 specialcook:Mr.DOUBLE becomes Mr.HomeRun!!!!!!!!!!!! 04/23 10:39
625F:推 dadaHOPE:Lowell! 04/23 10:39
626F:推 COWBOY2:XDDDDDDDDDDDDDDDDDDDDDDDDDDDDDDDDDDDD 04/23 10:40
627F:→ maikxz:!!!!!!!!!!!!!!!!!!!!!!!!!!!!!!!!!1爽啊 04/23 10:40
628F:推 tkyoung:烟火秀! 04/23 10:40
629F:推 JackyPayton:!!!!!!!!!!!!!!!!!!!!!!!!!! 04/23 10:40
630F:推 amyer:松坂变胜投候选人了 04/23 10:39
631F:推 ltk99:卖肉hr 爽 04/23 10:40
632F:推 poloball:维尼加入胜投候选~! 04/23 10:40
633F:推 tsubasa6405:今天得分都靠全垒打啊!!!! 04/23 10:40
634F:推 pop100:3分炮 04/23 10:40
635F:推 phoenixtwo:胜投来了吗 04/23 10:40
636F:推 freeru:!!!!!!!!!!!!!!!!!!!!!!!!!!!!!!!!!!!!! 04/23 10:40
637F:→ jshuang:Dice-K, 今天大家一次还给你. 会钱要记得交喔 04/23 10:39
638F:推 HanshinImaok:曾:今天绿色怪物是不是比较低 04/23 10:40
639F:推 TimChiu:爽~~爽~~爽~~爽~~爽~~~ 04/23 10:40
640F:→ hugoweng:MR.DOUBLE HOMER 04/23 10:40
641F:→ tsubasa6405:挑战绿色怪物的好多XD 04/23 10:40
642F:推 danceking:卖肉赞喔~~~~ 04/23 10:40
643F:推 krajicek:队长要不要打一支三垒打,另类完全打击?这四人 04/23 10:40
644F:推 paulrichman:卖肉我爱你!!! 04/23 10:40
645F:推 idioteque:太爽了 04/23 10:40
646F:→ specialcook:日本乡民:只会打全垒打....真是太棒了XD 04/23 10:40
647F:推 deyugo:放烟火啦!!! Mr. HRRRR!! 04/23 10:40
648F:→ JeAnnWu:只顾打全垒打也爽啊 团队第19支 04/23 10:40
649F:→ maikxz:果然是胖子然後只会打HR的球队XD 04/23 10:40
650F:→ Pika123:松坂:水啦~原来失多一点分数才能得到多一点分数 :p 04/23 10:40
651F:推 MER:哇~~~~~~~~ 一定要赢啊~~~~~~~ 哦哦哦~~~~~~ 04/23 10:40
652F:推 jackass:绿色怪物都不怪物了!!!!! 04/23 10:41
653F:→ tkyoung:换一个更大的油桶上来 04/23 10:41
654F:推 iamokk:打爆洋基!!!!!!!!!!!!! 04/23 10:41
655F:→ HanshinImaok:真想看今天2ch会说什麽 哈哈哈 04/23 10:41
656F:推 lodsongyy:XDDDDDD 04/23 10:41
657F:推 A8804064:不要在说袜子不帮忙了.... 04/23 10:41
658F:推 ckhou:爽啊 04/23 10:41
659F:推 yankeehater:又是七分了 XDDDDDDD 04/23 10:41
660F:推 beckli:结果失分比较多的这场现在赢面不小XD 04/23 10:41
661F:推 maxdi:芬威球场怎麽变成台中球场了 04/23 10:41
662F:推 christie972:全垒打大赛喔... 04/23 10:41
663F:→ cornelius:XD 04/23 10:41
664F:→ paulrichman:I love you!!! 卖肉 04/23 10:41
665F:推 Carmelo3:!!!!!!!!!!!!!!!!Mr.Double魂!!!!!!!!!!!!!!!!!!!!!!!!!! 04/23 10:41
666F:→ A8804064:lucky seven 04/23 10:42
667F:推 TimChiu:maxdi你先裸奔再说阿 XD 04/23 10:42
668F:→ Carmelo3:Mr.Double:哎呀....不小心干太远了 04/23 10:42
669F:→ paulrichman:松现在是胜投候选吗? 04/23 10:42
670F:推 kkman0331:芬威的左外野太近了 打得高没打远也可能出去 04/23 10:42
671F:推 Jyichien:太快乐了XD 04/23 10:42
672F:推 JackyPayton:XDDDDD 太欢乐了! 04/23 10:42
673F:推 zingaro:!!!!!!!!!!!!!!!!!!!!!!!!!!!!!!!!!帅到!!!!!!!!!!!!!!!!! 04/23 10:43
674F:推 tatani:对啊 那这样 松应该变胜投? 应该没错吧 04/23 10:42
675F:推 Okajima:This homerun can go out in any park!!!!!!!!!!!!!!!!!!! 04/23 10:42
676F:→ maxdi:大白天裸奔会被抓到警察局 04/23 10:43
677F:推 mannypo:绿怪:保安!保安! 可以这样让人一直飞过去吗??? 04/23 10:42
678F:推 mark30204:七分都是全垒打打的打点QQ 04/23 10:43
679F:推 Jethro1215:卖肉太帅啦~~~~ 04/23 10:43
680F:推 jshuang:天天冈跟(打牌)怕被碰都在热身 04/23 10:43
681F:推 maikxz:等下不知道会不会又是天天冈... 04/23 10:43
682F:推 tunababy:每次看画面...都全垒打...我还以为是再重拨...真是爽啊.. 04/23 10:42
683F:推 ckhou:maxdi:再出去我含着香蕉跑 04/23 10:43
684F:推 leione:Lowell好棒啊 04/23 10:43
685F:→ COWBOY2:XDDD送!!!!! 04/23 10:44
686F:推 kkman0331:这个球场是投手坟场吧 打到左外野紮实点就很不妙 04/23 10:44
687F:推 nozomi21wt:早知道我今天应该不要去上学 =3= 太精采了 04/23 10:44
688F:推 ruffryders: maxdi:再出去我含着香蕉跑 04/23 10:45
689F:推 specialcook:打到左外野要"很"扎实才会不妙吧XD 04/23 10:45
690F:推 nicetry: maxdi:再出去我含着香蕉跑 04/23 10:45
691F:推 zingaro: maxdi:再出去我含着香蕉跑 04/23 10:45
692F:推 A8804064:绿色怪物挡了不少全垒打...应该对投手比较有利 04/23 10:45
693F:推 christie972:maxdi:再出去我含着香蕉跑 04/23 10:45
694F:推 ltk99:wmp...3K 04/23 10:46
695F:推 paulrichman: maxdi:再出去我含着香蕉跑 04/23 10:46
696F:推 juiceana:哈哈 真是有够盲的 我宁愿让前两战表现很好的coco上场 04/23 10:46
697F:推 Sakurasai:绿色怪物也让不少飞球成为长打..并不会对投手有利 04/23 10:46
698F:推 tkyoung:对WMP就是一直丢外角就对了.反正他不知道自己手到底多长 04/23 10:46
699F:推 hugoweng:...MO真的很囧 为什麽今天COCO没上? 04/23 10:46
700F:推 maikxz:...................换Coco上来偷点算了 04/23 10:46
701F:推 dadaHOPE:干 Wily Mo没救了 04/23 10:46
702F:推 poloball:维尼:原来有失才有得啊 嗯...(笔记) 04/23 10:46
703F:→ paulrichman:e04!! WMP keep blind all night! 04/23 10:46
704F:推 WilliamChu: maxdi:再出去我含着香蕉跑 04/23 10:46
705F:推 maxdi:这场好像MVP里的paterson系列在打击' 04/23 10:46
706F:→ ltk99: maxdi:再出去我含着香蕉跑 04/23 10:47
707F:→ maikxz:小朋友终於安打了Orz 04/23 10:47
708F:推 phoenixtwo:维尼今天还要上吗? 04/23 10:46
709F:→ paulrichman:帅....小pedro帅 04/23 10:47
710F:推 ruffryders:卖肉长的很像乔治克隆尼~ 04/23 10:47
711F:→ ruffryders: maxdi:再出去我含着香蕉跑 04/23 10:47
712F:→ maikxz:靠 原来是第二支 早上睡过头没看到 04/23 10:47
713F:推 lodsongyy:Wily Mo争气点 = = Coco都有复活迹象了 04/23 10:47
714F:推 amyer:Coco 下局应该会上来接替中外野守备 04/23 10:48
715F:推 phoenixtwo:poloball:维尼:原来有失才有得啊 04/23 10:49
716F:推 RayAllen1030:lugo walk 04/23 10:50
717F:推 lodsongyy:前面没看到Wily Mo是不是都外角被K掉? 04/23 10:50
718F:推 idioteque:Lugo walk 04/23 10:51
719F:推 jshuang:队友: 跟你讲会钱要交才会打分数 04/23 10:50
720F:推 paulrichman:Lugo..选球男!! 04/23 10:51
721F:推 maxdi:现在的投手长的真像michael jordan 04/23 10:51
722F:推 specialcook:Lugo今天几次bb啦 眼睛真好@@ 04/23 10:51
723F:推 A8804064:吉祥物上来了..... 04/23 10:51
724F:推 waterice12:燃烧吧牛棚 04/23 10:52
725F:→ idioteque:前二棒选到5次保送 04/23 10:52
726F:→ JackyPayton:Lugo ....好会选XD 04/23 10:52
727F:推 jshuang:续投喔!!!!! 04/23 10:53
728F:推 hugoweng:我要冈岛!! 04/23 10:53
729F:→ jshuang:松伸食指: 再一局啦 04/23 10:53
730F:推 paulrichman:= =..YOUK -.- 04/23 10:53
731F:推 A8804064:前两棒是眼睛....可口可乐兄弟摆後段棒次果然是对的 04/23 10:53
732F:推 WilliamChu:没差啦 下局刚好换345棒 04/23 10:54
733F:推 ruffryders: 再一局啦 04/23 10:54
734F:推 Okajima:Sorry, I don't want to be another Proctor... 04/23 10:54
735F:推 phoenixtwo:可口可乐连线又来了吗 04/23 10:54
736F:→ ruffryders: 再一局啦 04/23 10:54
737F:推 leione:Youk今天闷了 04/23 10:55
738F:推 hugoweng:还真的继续投耶.... 04/23 10:56
739F:推 A8804064:牛肉.... 04/23 10:56
740F:推 specialcook:DICE-K续投? 04/23 10:56
741F:→ A8804064:斗志真强!!!! 04/23 10:56
742F:推 jshuang:我刚说续投就是有看到他从休息室出来啊. XD 04/23 10:56
743F:推 ltk99: 松坂:再一局啦,我刚热身完 04/23 10:55
744F:推 ckhou:真的耶 04/23 10:56
745F:→ jshuang:BS1 有照到 04/23 10:56
746F:推 paulrichman:继续K吧 04/23 10:56
747F:推 WilliamChu:阿牛一场120球很刚好吧 04/23 10:56
748F:推 doser:维尼之前都投太少在抗议XDDD 04/23 10:56
749F:推 maikxz:中四日还要再投耶= = 04/23 10:57
750F:推 tkyoung:鸟安... 04/23 10:57
751F:推 krajicek:或许投完A-Rod会下去吧,换冈岛对付两位左打 04/23 10:57
752F:推 idioteque:Coco上来守中外野 04/23 10:57
753F:推 A8804064:可以功成身退了.....= = 04/23 10:57
754F:→ jshuang:可惜. A-Rod 鸟碰 04/23 10:58
755F:推 baronterry:松:不好意思热身热太久了@@" 04/23 10:57
756F:推 specialcook:换投了 大概本来只打算投AROD吧 04/23 10:57
757F:推 hugoweng:真热血 04/23 10:58
758F:推 charlietu:小朋友太矮了啦!这场两个球都接不到.... 04/23 10:58
759F:→ maikxz:天天冈天天冈天天冈天天冈天天冈天天冈 04/23 10:59
760F:推 MER:天天冈上来了 04/23 10:59
761F:推 HanshinImaok:Okajima!!!! 04/23 10:59
762F:推 ckhou:天天冈上来对左打 04/23 10:59
763F:推 paulrichman:帅啊...天天冈 热血冈...送它们3K吧 04/23 10:59
764F:推 Okajima:OH!!! My term!!!!!!!!!!!!!!!!!!!!!!!!!!!!!!!!!!!!!!!!! 04/23 10:59
765F:推 jshuang:天天冈 04/23 10:59
766F:→ jshuang:天天冈 -> 不要选错字 04/23 11:00
767F:推 yankeehater:天天冈 Orz 04/23 11:00
768F:推 Kobe24:热血阿 都直球硬拼!! 04/23 11:00
769F:推 maikxz:Lowell别搞笑... 04/23 11:02
770F:推 jshuang:CoCo 都跑到人家的管区了. Manny 帮帮忙 04/23 11:04
771F:→ jshuang:怕被碰提早上的时机? 04/23 11:05
772F:推 KoAnne:期待DP~~~ 04/23 11:05
773F:推 HanshinImaok:来个DP结束这局 04/23 11:06
774F:→ jshuang:这球接近!!!! 04/23 11:06
775F:→ HanshinImaok:天天冈守住呀...别让基板的乡愿们看扁你 04/23 11:07
776F:→ jshuang:天天当来了. 04/23 11:07
777F:推 tkyoung:冈岛太操了 04/23 11:08
778F:推 KoAnne:当当当来了~~~ 04/23 11:08
779F:→ danceking:当当当~~~村民进入城镇中心拿家伙啊XD~ 04/23 11:09
780F:推 HanshinImaok:楼上AOC玩多了XD 04/23 11:10
781F:→ HanshinImaok:跑者手有点贱....唉 守住呀 04/23 11:12
782F:推 jshuang:松: 妈的又多算一分 04/23 11:13
783F:推 Polar:那个手... (看制服) 不意外啊(  ̄ c ̄)y▂ξ 04/23 11:13
784F:→ jshuang:NP守住了 04/23 11:14
785F:推 zingaro:有人抓脚啦!!! 04/23 11:14
786F:推 HanshinImaok:pedoria!!!好球呀!!! 04/23 11:14
787F:→ Polar:小Pedroia帅!! 04/23 11:15
788F:推 tsubasa6405:NP!!! 04/23 11:15
789F:推 ljuber:我看第九局红袜应该是啪啪棒要出来了 04/23 11:15
790F:推 smalldick:抓脚都没事...唉 04/23 11:15
791F:推 Okajima:Thanks a lot!!!! Pedoria!!! 04/23 11:16
792F:推 HanshinImaok:Pedroia才对 抱歉XD 04/23 11:19
793F:→ mannypo:袁公说维尼龙心大悦 有囧... 04/23 11:19
794F:推 hasebe:西武迷插拨一下XD 04/23 11:44
795F:→ hasebe:大辅在西武时,常常表现好=>打者囧=>败 04/23 11:45
796F:→ hasebe:打者猛=>自己囧=>败,所以数据上似乎颇受火力支援,其实... 04/23 11:45
797F:推 barkli:在红袜就是要爆才有机会赢球啊 04/23 11:46
798F:推 poloball:问一下楼楼上的西武迷 今天维尼算爆了吗? 04/23 11:53
799F:→ hasebe:以美国或日本角度来看都算爆吧XDD 04/23 11:55
800F:→ hasebe:可见西武法则拿去红袜不适用(误) 04/23 11:56
801F:推 jshuang:今天内容还可以. 运气还是烂. 结果算爆 04/23 12:29
802F:推 phoenixtwo:高於自己的防御率都算爆吧 04/23 12:36
803F:推 smalldick:至少他应该了解到基袜战不是那麽好投的,希望下次更小心 04/23 12:38
804F:推 club8:掉的前三分有点运气差啦 都是用守备就可化解的失分 04/23 12:57
805F:→ club8:不过打线今天也总算还他一场了...前两场实在太悲情 04/23 12:58
806F:推 u7273:连打四只HR时,主播就说:What a shock!!! 04/24 01:48